Home > Weather > Vilnius > Past weeks

Flag for Lithuania Weather for the Past 2 Weeks in Vilnius, Lithuania

Now
27 °F

Partly sunny.


Feels Like: 23 °F
Forecast: 35 / 43 °F
Wind: 3 mph from South

Location: Vilnius Airport

Current Time: Feb 6, 2016 at 9:30:15 AM

Latest Report: Feb 6, 2016 at 8:50 AM


Visibility: N/A

Pressure: 30.12 "Hg

Humidity: 93%

Dew point: 25 °F

Location of VilniusLocation

Historic Weather in Vilnius — Graph

°F

Vilnius Temperature Yesterday

Maximum temperature yesterday: 36 °F (at 1:50 PM)
Minimum temperature yesterday: 30 °F (at 9:50 PM)
Average temperature yesterday: 33 °F

High & Low Weather Summary for the Past Weeks

 TemperatureHumidityPressure
High45 °F (Feb 2, 9:20 AM)100% (Jan 23, 4:20 AM)30.45 "Hg (Jan 23, 4:20 AM)
Low7 °F (Jan 22, 7:20 AM)70% (Feb 1, 3:50 PM)29.33 "Hg (Jan 31, 4:20 AM)
Average32 °F89%29.85 "Hg
* Reported Jan 22 7:20 AM — Feb 6 7:50 AM, Vilnius, Weather by CustomWeather, © 2016

Note: Actual official high and low records may vary slightly from our data, if they occured in-between our weather recording intervals... More about our weather records

Advertising

Vilnius Weather History for the Previous 24 Hours

 ConditionsComfort  
Time TempWeatherWind HumidityBarometerVisibility
7:50 AM
Sat, Feb 6
28 °FPassing clouds.5 mph93%30.12 "HgN/A
7:20 AM30 °FPassing clouds.6 mph86%30.09 "HgN/A
6:50 AM30 °FPassing clouds.5 mph86%30.09 "HgN/A
6:20 AM30 °FPassing clouds.6 mph86%30.09 "HgN/A
5:50 AM30 °FOvercast.6 mph86%30.09 "HgN/A
5:20 AM30 °FMostly cloudy.6 mph86%30.09 "HgN/A
4:50 AM30 °FOvercast.7 mph86%30.09 "HgN/A
4:20 AM30 °FOvercast.7 mph86%30.09 "HgN/A
3:50 AM30 °FOvercast.6 mph86%30.09 "HgN/A
3:20 AM30 °FMostly cloudy.6 mph86%30.09 "HgN/A
2:20 AM30 °FOvercast.7 mph86%30.07 "HgN/A
1:50 AM30 °FPassing clouds.8 mph86%30.07 "HgN/A
1:20 AM30 °FMostly cloudy.8 mph86%30.07 "HgN/A
12:20 AM30 °FPassing clouds.8 mph80%30.04 "HgN/A
11:50 PM
Fri, Feb 5
30 °FPassing clouds.9 mph80%30.04 "HgN/A
11:20 PM30 °FPassing clouds.12 mph80%30.04 "HgN/A
10:50 PM30 °FPassing clouds.9 mph86%30.04 "HgN/A
10:20 PM30 °FPassing clouds.10 mph86%30.01 "HgN/A
9:50 PM30 °FPassing clouds.14 mph86%30.01 "HgN/A
9:20 PM32 °FPassing clouds.16 mph80%30.01 "HgN/A
8:50 PM32 °FPassing clouds.16 mph80%30.01 "HgN/A
8:20 PM32 °FPassing clouds.15 mph80%29.98 "HgN/A
7:50 PM34 °FPassing clouds.15 mph75%29.98 "HgN/A
7:20 PM34 °FPassing clouds.17 mph75%29.98 "HgN/A
6:50 PM34 °FPassing clouds.16 mph81%29.98 "HgN/A
6:20 PM34 °FPassing clouds.15 mph81%29.98 "HgN/A
5:50 PM34 °FPassing clouds.15 mph81%29.95 "HgN/A
5:20 PM34 °FPassing clouds.14 mph81%29.95 "HgN/A
4:50 PM34 °FPartly sunny.14 mph81%29.95 "HgN/A
4:20 PM34 °FPartly sunny.14 mph81%29.95 "HgN/A
3:50 PM34 °FPartly sunny.15 mph81%29.95 "HgN/A
3:20 PM36 °FPartly sunny.15 mph75%29.95 "HgN/A
2:50 PM36 °FPartly sunny.15 mph75%29.92 "HgN/A
2:20 PM36 °FPartly sunny.17 mph75%29.92 "HgN/A
1:50 PM36 °FPartly sunny.16 mph75%29.92 "HgN/A
1:20 PM34 °FPartly sunny.14 mph75%29.95 "HgN/A
12:50 PM34 °FPartly sunny.14 mph81%29.92 "HgN/A
12:20 PM34 °FPartly sunny.15 mph81%29.92 "HgN/A
11:50 AM34 °FPartly sunny.17 mph81%29.92 "HgN/A
11:20 AM34 °FPartly sunny.14 mph81%29.92 "HgN/A
10:50 AM34 °FPartly sunny.15 mph81%29.89 "HgN/A
10:20 AM32 °FPartly sunny.12 mph87%29.89 "HgN/A
9:50 AM32 °FPartly sunny.12 mph87%29.89 "HgN/A
9:20 AM32 °FOvercast.12 mph87%29.86 "HgN/A
Weather by CustomWeather, © 2016

See weather overviewHow to use our weather pages